Preview of NWS' New Version of Forecast
This preview is not operational and should not be used for support decisions.

Regional Weather Roundup (RWR)

Issued by National Weather Service (NWS)

                            
000
ASUS43 KDTX 191501
RWRMI 
MICHIGAN HOURLY REGIONAL WEATHER ROUNDUP
NATIONAL WEATHER SERVICE DETROIT/PONTIAC MI
1100 AM EDT FRI APR 19 2019

NOTE: "FAIR" INDICATES FEW OR NO CLOUDS BELOW 12,000 FEET WITH NO
SIGNIFICANT WEATHER AND/OR OBSTRUCTION TO VISIBILITY.

MIZ047>049-052>055-059>063-066>070-074>076-081>083-191600-
SOUTHEAST LOWER MICHIGAN
  
CITY           SKY/WX    TMP DP  RH WIND       PRES   REMARKS
ADRIAN         LGT RAIN  44  39  82 N18       29.69R                  
ALMA           CLOUDY    43  39  86 N14       29.80R                  
ANN ARBOR      CLOUDY    44  40  85 NW14      29.69R                  
BAD AXE        CLOUDY    37  36  93 N14G23    29.74R WCI  29          
CARO           LGT RAIN  38  36  94 N13G22    29.76R WCI  30          
DETROIT CITY   CLOUDY    43  38  82 N13       29.68R                  
DETROIT        CLOUDY    45  38  76 N14       29.68R                  
FLINT          CLOUDY    40  36  86 N15       29.75R WCI  32          
GROSSE ILE     CLOUDY    44  41  89 N13       29.67R                  
HILLSDALE      CLOUDY    42  38  85 N17       29.69S                  
HOWELL         CLOUDY    39  37  89 N9G18     29.73R WCI  33          

CITY           SKY/WX    TMP DP  RH WIND       PRES   REMARKS
JACKSON        CLOUDY    41  38  89 N12G23    29.72R                  
LAMBERTVILLE   CLOUDY    45  44  98 N10G16    29.68R                  
LANSING        CLOUDY    39  38  96 N14       29.78R FOG     WCI  31  
LAPEER         CLOUDY    39  37  93 N8G18     29.74R WCI  34          
MASON          CLOUDY    40  37  89 N13G18    29.75R WCI  33          
MONROE         CLOUDY    46  45  98 N8        29.68R                  
MT. CLEMENS    CLOUDY    42  42 100 N15       29.68R                  
PONTIAC        CLOUDY    40  38  93 N16       29.70R WCI  31          
PORT HOPE        N/A     38  36  92 N21G30    29.72R WCI  28          
PORT HURON     LGT RAIN  39  36  87 N10G16    29.69R WCI  32          
TRI CITIES     CLOUDY    41  38  89 N15       29.79R                  
MIDLAND        DRIZZLE   41  37  87 N9        29.80R                  
TROY           CLOUDY    42  37  83 N10G18    29.70S                  
SAGINAW HB     CLOUDY    41  37  87 N18G25    29.78R                  
$$
MIZ043>046-050>051-056>058-064>065-071>073-077>080-191600-
SOUTHWEST LOWER MICHIGAN
  
CITY           SKY/WX    TMP DP  RH WIND       PRES   REMARKS
BATTLE CREEK   LGT RAIN  41  37  86 N15G22    29.76R                  
BENTON HARBOR  CLOUDY    41  36  82 N12G22    29.79R                  
BIG RAPIDS     CLOUDY    41  35  79 NE10      29.81R                  
COLDWATER      CLOUDY    43  42  97 N13       29.73S                  
FREMONT        CLOUDY    42  36  77 N9G16     29.81S                  
HOLLAND        CLOUDY    43  36  76 NE13G28   29.80R                  
GRAND RAPIDS   CLOUDY    42  36  79 N13       29.79R                  
IONIA          CLOUDY    41  36  83 N15G22    29.78R                  
KALAMAZOO      CLOUDY    42  36  79 NE13G24   29.77R                  
LUDINGTON      CLOUDY    44  35  72 N12G17    29.85R                  
MARSHALL       CLOUDY    41  41 100 N8        29.74R                  
MOUNT PLEASANT CLOUDY    41  39  94 N12       29.80R                  
MUSKEGON       CLOUDY    45  34  65 N14G21    29.82R                  
SOUTH HAVEN    CLOUDY    43  37  80 N7        29.79R                  
$$
MIZ016>042-191600-
NORTHERN LOWER MICHIGAN
  
CITY           SKY/WX    TMP DP  RH WIND       PRES   REMARKS
ALPENA         LGT RAIN  40  37  89 N17       29.83S WCI  31          
BEAVER ISLAND  FAIR      41  31  65 N15G23    29.92S                  
BELLAIRE       CLOUDY    42  35  75 N6        29.88R                  
CADILLAC       CLOUDY    40  38  93 N7        29.81S                  
CHARLEVOIX     FAIR      39  34  82 N14G20    29.92R WCI  31          
FRANKFORT      PTSUNNY   43  33  67 N10G17    29.88F                  
HARBOR SPRINGS FAIR      45  33  63 NE13      29.88R                  
HOUGHTON LAKE  CLOUDY    38  34  85 N12G21    29.82R WCI  30          
MANISTEE       CLOUDY    44  35  70 NE17      29.86R                  
OSCODA         MIX PCPN  38  38  97 N16G23    29.78R WCI  30          
PELLSTON       FAIR      43  31  62 N16       29.89R                  
ROGERS CITY    FAIR      39  35  86 NW12      29.87R WCI  31          
TRAVERSE CITY  CLOUDY    40  33  76 N15G24    29.87R WCI  32          
$$
MIZ007>008-015-191600-
EASTERN UPPER MICHIGAN
  
CITY           SKY/WX    TMP DP  RH WIND       PRES   REMARKS
KINROSS        FAIR      40  32  73 NW13      29.90R WCI  32          
MACKINAC ISLAN FAIR      42  35  74 N8        29.89R                  
NEWBERRY       FAIR      41  28  60 N10       29.92S                  
S. S. MARIE    FAIR      46  29  51 NE10      29.89S                  
MUNISING         N/A     37  29  72 NE7       29.97S WCI  32          
$$
MIZ004>006-011>014-085-191600-
CENTRAL UPPER MICHIGAN
  
CITY           SKY/WX    TMP DP  RH WIND       PRES   REMARKS
MANISTIQUE     FAIR      46  21  37 N15       29.92F                  
ESCANABA       FAIR      45  27  49 NE12G20   29.95S                  
MENOMINEE      FAIR      45  30  55 N12       29.95S                  
SAWYER-GWINN   SUNNY     41  28  60 N15       29.96S                  
$$
MIZ001>003-009>011-084-191600-
WESTERN UPPER MICHIGAN
  
CITY           SKY/WX    TMP DP  RH WIND       PRES   REMARKS
HOUGHTON       FAIR      48  26  42 CALM      29.97S                  
COPPER HARBOR    N/A     40  34  79 CALM      29.98F                  
IRONWOOD       FAIR      47  37  68 NW5       30.01R                  
$$

ABBREVIATIONS USED IN REMARKS
   TC - TEMPERATURE IN CELSIUS
  WCI - WIND CHILL INDEX
   HX - HEAT INDEX
  VSB - VISIBILITY